Weather in Shostka

Ukraine / Sumi District     51˚51′57″N   33˚28′33″E
temp.,
°C
wind,
m/s
gust,
m/s
humid.,
%
clouds,
%
prec.,
mm/h
press.,
hPa
HPBL,
m
29 november, sun
sun2923:00+2˚sse3598100 0.6 1018189
02:00+2˚sse2398100 0.7 1018136
05:00+2˚s2399100 1.8 1017148
08:00+2˚sw2398100 3.5 1019171
11:00+2˚sw2397100 2.1 1020253
14:00+2˚wsw2397100 3.5 1021191
17:00+2˚s1296100 0.2 1022143
20:00+2˚sse2395100 0.2 1023188
30 november, mon
mon3023:00+2˚ese2397100 0.0 1023150
02:00+2˚n1298100 1.2 102374
05:00+1˚nnw2298100 3.4 1022109
08:00+1˚nw2398100 5.3 1024119
11:00+1˚wnw2398100 1.6 1024141
14:00+1˚nw3598100 4.1 1024174
17:00nnw2499100 2.3 1025158
20:00nnw3599100 3.5 1026220
1 december, tue
tue123:00n4699100 1.6 1026297
02:00n4798100 4.0 1027379
05:00−1˚n4798100 0.9 1027391
08:00−1˚n5897100 2.3 1028364
11:00nne47100100 1.3 1028332
14:00ne35100100 1.7 1029218
17:00+1˚ene2599100 0.1 1029173
20:00e3794100 0.1 1030294
2 december, wed
wed223:00e3793100 0.0 1030318
02:00−3˚e3792100 0.0 1030149
05:00−3˚e3892100 0.0 1030204
08:00−3˚e3991100 0.0 1030279
11:00−1˚ese5886100 0.0 1030563
14:00−2˚ese4794100 0.1 1029497
17:00−3˚ese489498 0.1 1029401
20:00−3˚ese498699 0.1 1030340
3 december, thu
thu323:00−2˚ese5987100 0.0 1030394
02:00−2˚se5890100 0.0 1029441
05:00−2˚se5996100 0.3 1029456
08:00−3˚se5895100 0.8 1029446
11:00−2˚se589299 0.1 1029475
14:00−2˚se589399 0.4 1028478
17:00−3˚se599697 0.2 1028373
20:00−3˚se5109597 0.4 1028375